www.pogodaiklimat.ru

Погода и климат >> Архив погоды >> Россия >> Северная Осетия >> Владикавказ


АРХИВ ПОГОДЫ в Владикавказе

Время (UTC), дата Ветер
(напр.,м/с)
 
Видим.   Явления Облачность Т
(С)
Тd
(С)
f
(%)
Тe
(С)
Тes
(С)
Комфортность P
(гПа)
Po
(гПа)
Тmin
(С)
Tmax
(С)
R
(мм)
R24
(мм)
S
(см)
12 12.02 СЗ 1 20 км {туман} 8/6 600 м
[Sc Ac und]
+4.1 +0.2 76 +3 +4 по сезону 1019.5 935.6
15 12.02 СЗ 2 4000 м дымка 10/10 300 м
[Sc]
+2.2 -0.1 85 -1 -1 по сезону 1020.8 936.2 +5.6
18 12.02 С 1 1000 м дымка 10/10 300 м
[St]
+1.8 -0.1 87 0 0 по сезону 1021.5 936.7
21 12.02 ЮЗ 1 1000 м дымка 10/10 300 м
[St]
+0.3 -1.5 88 -2 -2 по сезону 1021.3 936.1
00 13.02 штиль 0 1000 м дымка 10/10 300 м
[St]
-0.1 -2.0 87 -1 -1 тепло 1022.8 937.3
03 13.02 штиль 0 10 км ясно -2.2 -3.8 89 -3 -3 по сезону 1023.4 937.2 -2.3
06 13.02 Ю 1 4000 м дымка 10/6 300 м
[St Ac As Ci fib]
-0.3 -2.6 84 -2 -2 по сезону 1024.6 938.9 -2.8
09 13.02 С 1 50 км 6/0
[Ci sp]
+6.0 -1.5 59 +5 +13 тепло 1022.0 938.3
12 13.02 З 2 20 км 6/0
[Ac trans Ci fib]
+4.5 +0.2 74 +2 +4 по сезону 1023.2 939.0
15 13.02 штиль 0 10 км 8/3 600 м
[Sc Ac trans]
+1.5 -0.7 85 0 0 по сезону 1024.0 938.9 +7.6
18 13.02 З 1 500 м туман ?/? -0.7 -1.8 92 -3 -3 по сезону 1024.5 938.7
21 13.02 штиль 0 500 м туман [диам. гололёда 0 мм] ?/? -2.4 -3.4 93 -4 -4 по сезону 1024.6 938.3
00 14.02 Ю 1 10 км {туман} [диам. гололёда 0 мм] ясно -1.4 -3.4 86 -4 -4 по сезону 1024.0 938.0
03 14.02 штиль 0 10 км [диам. гололёда 0 мм] ясно -0.2 -7.0 60 -1 -1 по сезону 1024.2 938.5 -3.2
06 14.02 З 2 2000 м дымка 10/10 600 м
[Sc]
+0.4 -1.6 86 -3 -3 по сезону 1024.9 939.4
09 14.02 З 1 1000 м дымка {туман} 10/10 300 м
[Sc]
+1.4 -1.1 83 -0 -0 по сезону 1024.4 939.3
12 14.02 З 1 10 км {туман} 10/10 300 м
[Sc]
+2.6 -1.5 74 +1 +1 по сезону 1022.6 938.0
15 14.02 СЗ 1 10 км 10/10 600 м
[Sc]
+1.9 -0.7 83 0 0 по сезону 1022.9 938.0 +2.8
18 14.02 З 1 1000 м дымка 10/10 200 м
[St]
+0.2 -1.4 89 -2 -2 по сезону 1023.1 937.7
21 14.02 СЗ 1 200 м туман [диам. гололёда 0 мм] н/о -0.6 -1.6 93 -3 -3 по сезону 1022.9 937.3
00 15.02 З 2 500 м туман [диам. гололёда 0 мм] ?/? -1.2 -2.3 92 -5 -5 по сезону 1022.8 937.0
03 15.02 З 1 500 м слаб. морось {туман} [диам. гололёда 1 мм] ?/? -1.5 -2.5 93 -4 -4 по сезону 1023.3 937.4 -1.5 0.2
06 15.02 З 1 1000 м слаб. морось {туман} [диам. гололёда 1 мм] 10/10 200 м
[St]
-1.3 -2.3 93 -4 -4 по сезону 1024.3 938.3
09 15.02 В 1 4000 м дымка 10/10 300 м
[St]
+0.1 -2.1 85 -2 -2 по сезону 1022.8 937.4
12 15.02 СЗ 1 4000 м снежные зёрна {морось} 10/10 300 м
[St]
+0.1 -2.4 83 -2 -2 по сезону 1022.3 936.9
15 15.02 В 1 4000 м слаб. морось 10/10 300 м
[St]
-0.3 -2.4 86 -2 -2 по сезону 1022.7 937.2 +0.6 0.8
18 15.02 штиль 0 4000 м слаб. переохл. морось (гололёд) [диам. гололёда 1 мм] 10/10 300 м
[St]
-0.3 -1.7 90 -2 -2 по сезону 1023.3 937.7
21 15.02 З 1 500 м слаб. переохл. морось (гололёд) {туман} [диам. гололёда 2 мм] ?/? -1.1 -2.2 92 -3 -3 по сезону 1021.7 936.0
00 16.02 С 1 500 м туман [диам. гололёда 2 мм] ?/? -1.2 -2.2 93 -3 -3 по сезону 1020.3 934.7
03 16.02 З 1 500 м туман [диам. гололёда 2 мм] ?/? -1.8 -2.8 93 -4 -4 по сезону 1020.5 934.7 -1.9 0.7
06 16.02 З 1 1000 м в посл. час переохл. осадки (гололёд) {морось, туман} [диам. гололёда 3 мм] 10/10 300 м
[St]
-1.6 -2.6 93 -4 -4 по сезону 1021.1 935.3 -2.0
09 16.02 ЮЗ 1 20 км 9/1 1000 м
[Cu med, cong Ac lent Cc]
+5.4 -1.8 60 +5 +9 тепло 1017.5 934.0
12 16.02 СЗ 1 20 км 9/3 1000 м
[Cu med, cong Ac As Ci ing]
+7.2 -8.9 31 +7 +9 тепло 1016.2 933.3
15 16.02 СЗ 1 10 км 10/0
[Cs]
+5.6 -10.1 31 +5 +5 тепло 1016.4 933.0 +7.8 0.0
18 16.02 СЗ 2 10 км 10/0
[As op]
+3.4 -4.0 58 +1 +1 тепло 1018.6 934.5
21 16.02 СЗ 1 500 м сильн. снег [диам. отлож. мокр. снега 3 мм] 10/0 300 м
[As op]
-2.8 -4.2 90 -5 -5 по сезону 1022.2 936.0
00 17.02 ЮВ 1 500 м {снег} [диам. отлож. мокр. снега 3 мм] 10/0 300 м
[As op]
-2.3 -4.0 88 -5 -5 по сезону 1020.4 934.4
03 17.02 С 1 500 м слаб. снег [диам. отлож. мокр. снега 3 мм] 10/0 300 м
[As op]
-1.6 -3.7 86 -4 -4 по сезону 1020.4 934.7 -2.9 7 13
06 17.02 В 1 4000 м дымка {снег} 10/10 300 м
[Sc]
-1.0 -3.6 82 -3 -3 по сезону 1021.5 935.8
09 17.02 Ю 2 10 км 10/10 600 м
[Sc]
+0.9 -3.1 75 -2 -2 по сезону 1019.0 934.2
12 17.02 З 1 20 км 5/3 1000 м
[Sc Ci fib]
+4.7 -1.5 64 +4 +6 по сезону 1015.6 932.1
15 17.02 Ю 1 10 км 5/0
[Ac lent Ci]
+2.3 -2.3 72 +1 +1 по сезону 1015.1 931.0 +6.3 0.0
18 17.02 Ю 2 10 км 8/0
[Ac und]
+2.4 -2.6 70 -1 -1 по сезону 1014.5 930.5
21 17.02 Ю 2 10 км 10/6 600 м
[Sc Ac As]
+4.6 -4.0 54 +2 +2 тепло 1011.6 928.4
00 18.02 Ю 1 10 км 10/10 600 м
[Sc]
+5.7 -4.2 49 +5 +5 тепло 1009.4 926.7
03 18.02 Ю 1 10 км 3/3 600 м
[Sc]
+2.4 -4.0 63 +1 +1 тепло 1008.5 925.0 +1.7 5
06 18.02 СВ 2 20 км 10/6 600 м
[Sc Ac und]
+4.0 -3.8 57 +2 +2 тепло 1008.8 925.7
09 18.02 ЮЗ 1 10 км 10/10 600 м
[Sc]
+5.0 -2.9 57 +4 +4 тепло 1011.1 928.1
12 18.02 С 1 2000 м ливневой снег 10/10 600 м
[Cb cap]
+1.2 -0.5 88 -1 -1 по сезону 1011.9 927.7
15 18.02 штиль 0 1000 м ливневой снег [диам. отлож. мокр. снега 10 мм] 10/10 600 м
[Cb cap]
+0.2 -0.9 92 -1 -1 по сезону 1013.7 929.1 +5.3 10
18 18.02 З 2 1000 м ливневой снег [диам. отлож. мокр. снега 18 мм] 10/10 600 м
[Cb cap]
-0.6 -1.8 92 -4 -4 по сезону 1017.0 931.9
21 18.02 штиль 0 1000 м ливневой снег [диам. отлож. мокр. снега 21 мм] 10/10 600 м
[Cb cap]
-2.4 -3.7 91 -4 -4 по сезону 1019.1 933.2
00 19.02 СЗ 1 1000 м слаб. ливневой снег [диам. отлож. мокр. снега 21 мм] 10/10 600 м
[Cb cap]
-4.1 -6.4 84 -6 -6 по сезону 1020.5 934.0
03 19.02 штиль 0 2000 м слаб. ливневой снег [диам. отлож. мокр. снега 21 мм] 10/10 600 м
[Cb cap]
-4.3 -6.7 83 -5 -5 по сезону 1021.8 935.1 -4.6 10 20
06 19.02 З 1 20 км {ливн. осадки} 6/6 600 м
[Sc]
-2.2 -6.2 74 -4 -3 по сезону 1023.3 937.1
09 19.02 штиль 0 20 км 3/3 600 м
[Sc]
+1.2 -4.4 66 +1 +8 по сезону 1023.0 937.8

 

Местоположение метеостанции Владикавказ (Северная Осетия, Россия): широта 43.03 долгота 44.68 высота над уровнем моря 703 м.

В архиве по умолчанию представлена погода в Владикавказе за последнюю неделю. Архивные данные за месяц целиком и за предыдущие месяцы, начиная с января 2011 года, Вы можете получить, выбрав интересующий диапазон дат из раскрывающегося списка и нажав кнопку "Ввод!".


*Определитесь, кто Вы:
робот инопланетянин человек

Внимание! Время в таблицах - всемирное. Для получения местного времени необходимо прибавить поправку, которая равна 3 ч.

Смотрите также архив погоды в соседних городах и на ближайших метеорологических станциях:

Погода в Назрани (Ингушетия, Россия) (19 км)
Погода в Алагире (Северная Осетия, Россия) (35 км)
Погода на Рокском Перевале (Северная Осетия, Россия) (66 км)
Погода в Наре (Северная Осетия, Россия) (68 км)
Погода в Пасанаури (Грузия) (76 км)
Погода в Моздоке (Северная Осетия, Россия) (78 км)
Погода в Шатое (Чечня, Россия) (83 км)
Погода в Наурской (Чечня, Россия) (86 км)
Погода в Грозном (Чечня, Россия) (88 км)
Погода в Прохладный (Кабардино-Балкария, Россия) (95 км)

Пояснения к столбцам:

Ветер - указаны скорость ветра в м/с - средняя за 10 мин, порывы в срок и между сроками (в фигурных скобках) и направление, откуда дует ветер: С - северный, СВ - северо-восточный, В - восточный, ЮВ - юго-восточный, Ю - южный, ЮЗ - юго-западный, З - западный, СЗ - северо-западный.
Видимость - горизонтальная дальность видимости в метрах или километрах. При видимости от 1 до 10 км при отсутствии осадков обычно наблюдается дымка, при ухудшении видимости до 1 км и менее - туман. В сухую погоду видимость может ухудшаться дымом, пылью или мглою.
Явления - указаны атмосферные явления, наблюдавшиеся в срок или в последний час перед сроком; фигурными скобками обозначены явления, наблюдавшиеся между сроками (за 1-3 часа до срока); квадратными скобками обозначены град или гололедные отложения с указанием их диаметра в мм.
Облачность - указаны через наклонную черту общая и нижняя облачность в баллах и высота нижней границы облаков в метрах; квадратными скобками обозначены формы облаков: Ci - перистые, Cs - перисто-слоистые, Cc - перисто-кучевые, Ac - высококучевые, As - высокослоистые, Sc - слоисто-кучевые, Ns - слоисто-дождевые, Cu - кучевые, Cb - кучево-дождевые. Подробнее классификацию облаков см. в Атласе облаков (PDF).
T - Температура воздуха - температура, измеренная на высоте 2 м над землей.
Td - Температура точки росы - температура, при понижении до которой содержащийся в воздухе водяной пар достигнет насыщения.
f - Относительная влажность воздуха - влажноcть воздуха, измеренная на высоте 2 м над землей.
Te - Эффективная температура - температура, которую ощущает одетый по сезону человек в тени. Характеристика душности погоды. При расчете учитывается влияние влажности воздуха и скорости ветра на теплоощущения человека.
Tes - Эффективная температура на солнце - температура, которую ощущает человек, с поправкой на солнечный нагрев. Характеристика знойности погоды. Зависит от высоты солнца над горизонтом, облачности и скорости ветра. Ночью, в пасмурную погоду, а также при ветре 12 м/с и более поправка равна нулю.
P - Атмосферное давление - приведенное к уровню моря атмосферное давление.
Po - Атмосферное давление - измеренное на уровне метеостанции атмосферное давление.
Tmin - Минимальная температура - минимум температуры воздуха на высоте 2 м над землей.
Tmax - Максимальная температура - максимум температуры воздуха на высоте 2 м над землей.
R - Количество осадков - Количество выпавших осадков за период времени, мм. При наведении курсора мыши на число - период времени, за который выпало указанное количество осадков.
R24 - Количество осадков - Количество выпавших осадков за 24 часа, мм.
S - Снежный покров - Высота снежного покрова, см. При наведении курсора мыши на число - состояние снежного покрова и степень покрытия местности в баллах.